Regional Weather Roundup
Issued by NWS

Home | Current Version | Previous Version | Graphics & Text | Print | Product List | Glossary On
Versions: 1 2 3 4 5 6 7 8 9 10 11 12 13 14 15 16 17 18 19 20 21 22 23 24 25 26 27 28 29 30 31 32 33 34 35 36 37 38 39 40 41 42 43 44 45 46 47 48 49 50
000
ASUS45 KSLC 110110
RWRUT

UTAH REGIONAL WEATHER ROUNDUP
NATIONAL WEATHER SERVICE SALT LAKE CITY UT
600 PM MST WED FEB 10 2016

UTZ001>011-023>025-110200-

NORTHERN UTAH

CITY           SKY/WX    TMP DP  RH WIND       PRES   REMARKS
BRIGHAM CITY   CLOUDY    28  26  93 CALM      30.48R
HILL AFB       MOCLDY    29  26  88 CALM      30.43F FOG
LOGAN          FOG       22  21  96 NW5       30.46R VSB 3/4 WCI  16
OGDEN          CLOUDY    28  27  96 NW5       30.44S FOG     WCI  23
PROVO AIRPORT  CLEAR     27  21  80 CALM      30.44R HAZE
SALT LAKE CITY CLOUDY    30  27  88 N7        30.46R FOG     WCI  23
VERNAL         CLOUDY    23  16  74 CALM      30.37R HAZE
WENDOVER       CLOUDY    32  27  80 SE3       30.46S
HEBER CITY     PTCLDY    23  16  74 CALM      30.38R
WEST JORDAN    CLOUDY    28  28 100 N7        30.45R WCI  21

$$

UTZ012>022-026-027-110200-

SOUTHERN/CENTRAL UTAH

CITY           SKY/WX    TMP DP  RH WIND       PRES   REMARKS
BLANDING       PTCLDY    39  28  66 CALM      30.43S
BRYCE CANYON   CLEAR     39  12  33 N5        30.41R
CEDAR CITY     CLEAR     35  27  72 NW3       30.35R
DELTA          MOCLDY    23  20  90 CALM      30.43R
HANKSVILLE     CLEAR     43  32  65 CALM      30.39S
MILFORD        MOCLDY    21  16  81 N9        30.39R WCI  11
MOAB/CYNLANDS  CLEAR     37  27  67 N3        30.35F
PRICE          CLEAR     37  21  52 E3        30.37R
ST GEORGE      PTCLDY    63  27  25 CALM      30.27R
KANAB          CLEAR     59  23  25 CALM      30.34R

$$

REGIONAL REPORTS     COLORADO/ARIZONA

CITY           SKY/WX    TMP DP  RH WIND       PRES   REMARKS
CRAIG, CO      CLOUDY    16  11  80 CALM      30.34F
GRAND JUNCTION CLOUDY    34  29  82 CALM      30.37S
RIFLE          CLOUDY    32  22  66 SE8       30.37R WCI  25
MONTROSE       CLOUDY    37  25  61 N5        30.39R WCI  33
CORTEZ         CLOUDY    37  26  64 SE3       30.35S
PAGE, AZ       CLEAR     50  29  44 CALM      30.32F
GRAND CANYON   PTCLDY    49  17  28 CALM      30.38R
KINGMAN        PTCLDY    64  25  22 N7        30.25R
FLAGSTAFF      MOCLDY    49  23  36 CALM      30.39R

$$

REGIONAL REPORTS    NEVADA/IDAHO/WYOMING

CITY           SKY/WX    TMP DP  RH WIND       PRES   REMARKS
LAS VEGAS, NV  PTCLDY    70  20  15 CALM      30.18F
ELY            PTCLDY    30  24  78 S3        30.39R
ELKO           CLOUDY    28  19  69 E5        30.43S WCI  23
POCATELLO, ID  CLOUDY    29  23  78 E6        30.41S WCI  23
BURLEY         MOCLDY    35  29  78 N6        30.35F WCI  30
EVANSTON, WY   CLOUDY    34  19  54 W14       30.39R WCI  25
ROCK SPRINGS   CLOUDY    38  21  50 W20       30.32R WCI  28
KEMMERER       CLOUDY    30  19  64 CALM      30.36S

$$



USA.gov is the U.S. government's official web portal to all federal, state and local government web resources and services.